DW5444 Weather Reports


time (UTC)temp
C
wind
direction
speed
KPH
gust
KPH
rain 1hr
cm
rain 24hr
cm
rain mn
cm
humidity
%
barometer
mb
20260904090032 7 132 8.0 9.7 0.00 0.00 0.00 81 1009.9
20260904084531 7 132 6.4 9.7 0.00 0.10 0.00 81 1009.9
20260904083040 7 126 6.4 9.7 0.00 0.10 0.00 83 1009.7
20260904081526 7 127 4.8 8.0 0.00 0.10 0.00 84 1009.6
20260904080025 7 126 4.8 8.0 0.00 0.10 0.00 84 1009.6
20260904074525 7 132 4.8 6.4 0.00 0.20 0.00 84 1009.5
20260904073025 7 137 4.8 8.0 0.00 0.20 0.00 84 1009.4
20260904071520 7 119 4.8 6.4 0.00 0.20 0.00 84 1009.3
20260904070017 7 149 3.2 6.4 0.00 0.20 0.00 85 1009.3
20260904064514 7 142 3.2 6.4 0.00 0.20 0.20 84 1009.1
20260904063021 7 156 3.2 6.4 0.00 0.20 0.20 82 1009.1
20260904061511 8 156 3.2 8.0 0.00 0.20 0.20 82 1009.0
20260904060013 8 197 4.8 9.7 0.00 0.20 0.20 80 1009.0
20260904054510 9 227 8.0 12.9 0.00 0.28 0.20 73 1008.9
20260904053011 10 244 6.4 16.1 0.00 0.28 0.20 69 1008.9
20260904051509 8 116 1.6 11.3 0.00 0.28 0.20 70 1008.7
20260904050008 10 6 1.6 9.7 0.00 0.28 0.20 68 1008.8
20260904044508 9 136 3.2 8.0 0.00 0.38 0.20 69 1008.8
20260904043008 10 75 1.6 9.7 0.00 0.38 0.20 69 1008.6
20260904041509 10 130 6.4 9.7 0.00 0.38 0.20 69 1008.6
20260904040007 10 124 6.4 9.7 0.00 0.38 0.20 72 1008.7
20260904034505 10 132 6.4 8.0 0.00 0.64 0.20 71 1008.5
20260904033005 11 222 0.0 6.4 0.00 0.64 0.20 68 1008.2
20260904031503 11 42 4.8 6.4 0.00 0.64 0.20 67 1008.1
20260904030003 12 57 3.2 8.0 0.00 0.64 0.20 66 1008.0
20260904024508 12 52 6.4 9.7 0.00 0.71 0.20 65 1008.0
20260904023002 12 71 0.0 3.2 0.00 0.71 0.20 63 1008.1
20260904021501 13 72 6.4 12.9 0.00 0.71 0.20 63 1008.0
20260904020002 13 66 4.8 11.3 0.00 0.71 0.20 64 1008.1
20260904014615 13 48 6.4 9.7 0.00 0.76 0.20 64 1008.0
20260904013059 13 26 4.8 9.7 0.00 0.76 0.20 64 1008.0
20260904011559 13 9 4.8 11.3 0.00 0.76 0.20 63 1008.0
20260904010058 13 17 4.8 9.7 0.00 0.76 0.20 61 1008.0
20260904004557 13 312 6.4 14.5 0.00 0.84 0.20 59 1008.1
20260904003057 13 354 3.2 9.7 0.00 0.84 0.20 58 1008.1
20260904001556 14 55 4.8 11.3 0.00 0.84 0.20 57 1007.9
20260904000114 14 350 4.8 8.0 0.00 0.84 0.20 56 1008.1
20260903234555 14 335 4.8 9.7 0.00 0.86 0.20 54 1008.3
20260903233056 15 310 4.8 9.7 0.00 0.86 0.20 51 1008.4
20260903231555 15 114 0.0 4.8 0.00 0.86 0.20 48 1008.4
20260903230054 15 196 1.6 6.4 0.00 0.86 0.20 48 1008.6
20260903224610 15 181 3.2 6.4 0.00 0.86 0.20 47 1008.7
20260903223052 15 124 1.6 6.4 0.00 0.86 0.20 45 1008.8
20260903221551 15 250 1.6 8.0 0.00 0.86 0.20 47 1008.9
20260903220050 15 206 0.0 6.4 0.00 0.86 0.20 46 1009.0
20260903214607 15 205 3.2 6.4 0.00 0.86 0.20 45 1009.0
20260903213059 15 247 3.2 8.0 0.00 0.86 0.20 44 1008.9
20260903211546 15 55 1.6 11.3 0.00 0.86 0.20 45 1009.2
20260903210115 15 59 1.6 8.0 0.00 0.86 0.20 47 1009.1
20260903204549 15 175 3.2 14.5 0.00 0.86 0.20 44 1009.3
20260903203104 15 109 3.2 9.7 0.00 0.86 0.20 48 1009.4
20260903201545 15 132 3.2 12.9 0.00 0.86 0.20 49 1009.4
20260903200051 15 121 6.4 16.1 0.00 0.86 0.20 49 1009.8
20260903194539 15 159 6.4 11.3 0.00 0.86 0.20 51 1009.5
20260903193037 15 234 6.4 14.5 0.00 0.86 0.20 51 1009.6
20260903191538 14 240 1.6 9.7 0.00 0.86 0.20 52 1009.6
20260903190034 14 236 8.0 16.1 0.00 0.86 0.20 53 1009.8
20260903184529 13 281 6.4 14.5 0.00 0.86 0.20 56 1009.9
20260903183030 13 285 6.4 16.1 0.00 0.86 0.20 55 1010.0
20260903181525 13 270 8.0 16.1 0.00 0.86 0.20 57 1010.2
20260903180027 13 238 9.7 17.7 0.00 0.86 0.20 58 1010.2
20260903174530 13 256 11.3 20.9 0.00 0.86 0.20 58 1010.1
20260903173022 13 201 8.0 12.9 0.00 0.86 0.20 63 1010.1
20260903171521 13 198 8.0 16.1 0.00 0.86 0.20 65 1010.2
20260903170018 13 213 6.4 11.3 0.00 0.86 0.20 67 1010.1
20260903164515 12 206 4.8 11.3 0.00 0.86 0.20 69 1010.2
20260903163013 12 185 4.8 9.7 0.00 0.86 0.20 69 1010.3
20260903161511 11 133 3.2 8.0 0.00 0.86 0.20 69 1010.1
20260903160007 11 145 4.8 8.0 0.00 0.86 0.20 69 1010.1
20260903154505 11 121 4.8 11.3 0.00 0.86 0.20 70 1010.3
20260903153003 10 111 4.8 11.3 0.00 0.86 0.20 76 1010.4
20260903151502 10 160 4.8 11.3 0.00 0.86 0.20 75 1010.3
20260903150002 9 136 4.8 12.9 0.00 0.86 0.20 77 1010.3
20260903144606 9 88 3.2 9.7 0.00 0.86 0.20 78 1010.3
20260903143110 8 146 4.8 11.3 0.00 0.86 0.20 79 1010.2
20260903141605 8 85 4.8 8.0 0.00 0.86 0.20 83 1010.0
20260903140058 8 111 3.2 8.0 0.00 0.86 0.20 81 1010.0
20260903134558 -17 0.0 0.0 0.00 0.86 0.20 1009.8
20260903133049 -17 0.0 0.0 0.00 0.86 0.20 1009.7
20260903131546 -17 0.0 0.0 0.00 0.86 0.20 1009.6
20260903130040 -17 0.0 0.0 0.00 0.86 0.20 1009.6
20260903124542 -17 0.0 0.0 0.00 0.86 0.20 1009.6
20260903123037 -17 0.0 0.0 0.00 0.86 0.20 1009.5
20260903121526 -17 0.0 0.0 0.00 0.86 0.20 1009.6
20260903120023 -17 0.0 0.0 0.00 0.86 0.20 1009.4
20260903114518 -17 0.0 0.0 0.00 0.86 0.20 1009.4
20260903113014 -17 0.0 0.0 0.00 0.86 0.20 1009.4
20260903111509 -17 0.0 0.0 0.00 0.86 0.20 1009.3
20260903110007 -17 0.0 0.0 0.00 0.86 0.20 1009.4
20260903104503 9 241 3.2 11.3 0.00 0.86 0.20 87 1009.4
20260903103103 9 247 6.4 16.1 0.00 0.86 0.20 87 1009.3
20260903101607 10 211 4.8 11.3 0.00 0.86 0.20 89 1009.1
20260903100055 10 236 8.0 17.7 0.00 0.86 0.20 90 1009.0
20260903094556 10 229 4.8 9.7 0.00 0.86 0.20 92 1009.0
20260903093106 10 225 6.4 14.5 0.03 0.86 0.20 89 1008.7
20260903091550 10 146 3.2 8.0 0.03 0.86 0.20 90 1008.5